Location: Round Knob
(37.2473°N, 88.7376°W)
Time: 14:20:03
(UTC+00:00)

CZ-2D R/B - Pass Details

Date: 29 October 2020
Orbit: 522 x 537 km, 97.4° (Epoch: 03 December)

Event Time Altitude Azimuth Distance (km) Brightness Sun altitude
Rises 23:39:53 0° 141° (SE) 2,649 6.5 -8.6°
Reaches altitude 10° 23:42:13 10° 129° (SE) 1,762 5.5 -9.0°
Maximum altitude 23:45:24 26° 72° (ENE) 1,052 4.2 -9.7°
Drops below altitude 10° 23:48:37 10° 14° (NNE) 1,767 5.7 -10.3°
Sets 23:50:57 0° 2° (N) 2,659 6.7 -10.8°
